Time,TemperatureF,DewpointF,PressureIn,WindDirection,WindDirectionDegrees,WindSpeedMPH,WindSpeedGustMPH,Humidity,HourlyPrecipIn,Conditions,Clouds,dailyrainin,SoftwareType,DateUTC
2013-05-21 00:01:00,64.0,60.1,29.85,SE,135,0.0,0.0,87,0.00,,,0.00,WeatherDisplay:10.37,2013-05-21 04:01:00,
2013-05-21 00:02:00,64.0,60.1,29.85,SE,135,0.0,0.0,87,0.00,,,0.00,WeatherDisplay:10.37,2013-05-21 04:02:00,
2013-05-21 00:07:00,63.7,59.7,29.86,SE,135,0.0,0.0,87,0.00,,,0.00,WeatherDisplay:10.37,2013-05-21 04:07:00,
2013-05-21 00:12:00,63.7,59.7,29.86,SE,135,0.0,0.0,87,0.00,,,0.00,WeatherDisplay:10.37,2013-05-21 04:12:00,
2013-05-21 00:15:00,63.7,60.1,29.85,SE,135,0.0,0.0,88,0.00,,,0.00,WeatherDisplay:10.37,2013-05-21 04:15:00,
2013-05-21 08:18:00,63.7,60.1,29.85,SE,135,0.0,0.0,88,0.00,,,0.00,WeatherDisplay:10.37,2013-05-21 12:18:00,
2013-05-21 08:23:00,61.3,58.4,29.86,SSE,158,0.0,0.0,90,0.00,,,0.00,WeatherDisplay:10.37,2013-05-21 12:23:00,
2013-05-21 08:28:00,61.5,58.9,29.86,SSE,158,0.0,0.0,91,0.00,,,0.00,WeatherDisplay:10.37,2013-05-21 12:28:00,
2013-05-21 08:33:00,61.5,58.9,29.86,SSE,158,0.0,0.0,91,0.00,,,0.00,WeatherDisplay:10.37,2013-05-21 12:33:00,
2013-05-21 08:38:00,61.5,58.9,29.86,SSE,158,0.0,0.0,91,0.00,,,0.00,WeatherDisplay:10.37,2013-05-21 12:38:00,
2013-05-21 08:43:00,61.5,58.9,29.86,SSE,158,0.0,0.0,91,0.00,,,0.00,WeatherDisplay:10.37,2013-05-21 12:43:00,
2013-05-21 08:48:00,61.7,59.0,29.86,SSE,158,0.0,0.0,91,0.00,,,0.00,WeatherDisplay:10.37,2013-05-21 12:48:00,
2013-05-21 08:53:00,61.7,59.0,29.86,SSE,158,0.0,0.0,91,0.00,,,0.00,WeatherDisplay:10.37,2013-05-21 12:53:00,
2013-05-21 08:58:00,62.1,59.4,29.86,SSE,158,0.0,0.0,91,0.00,,,0.00,WeatherDisplay:10.37,2013-05-21 12:58:00,
2013-05-21 09:03:00,62.1,59.4,29.86,South,180,0.0,0.0,91,0.00,,,0.00,WeatherDisplay:10.37,2013-05-21 13:03:00,
2013-05-21 09:08:00,62.4,59.8,29.86,South,180,0.0,0.0,91,0.00,,,0.00,WeatherDisplay:10.37,2013-05-21 13:08:00,
2013-05-21 09:14:00,62.4,59.8,29.86,South,180,0.0,0.0,91,0.00,,,0.00,WeatherDisplay:10.37,2013-05-21 13:14:00,
2013-05-21 09:19:00,62.8,60.1,29.87,South,180,0.0,0.0,91,0.00,,,0.00,WeatherDisplay:10.37,2013-05-21 13:19:00,
2013-05-21 09:24:00,62.8,60.1,29.87,SSW,202,0.1,0.0,91,0.00,,,0.00,WeatherDisplay:10.37,2013-05-21 13:24:00,
2013-05-21 09:29:00,63.1,60.2,29.87,SSW,202,0.0,0.0,90,0.00,,,0.00,WeatherDisplay:10.37,2013-05-21 13:29:00,
2013-05-21 09:34:00,63.1,60.2,29.88,SSW,202,0.0,0.0,90,0.00,,,0.00,WeatherDisplay:10.37,2013-05-21 13:34:00,
2013-05-21 09:39:00,63.3,60.3,29.88,South,180,0.0,0.0,90,0.00,,,0.00,WeatherDisplay:10.37,2013-05-21 13:39:00,
2013-05-21 09:44:00,63.5,60.5,29.88,South,180,0.0,0.0,90,0.00,,,0.00,WeatherDisplay:10.37,2013-05-21 13:44:00,
2013-05-21 09:49:00,64.0,61.0,29.88,South,180,0.0,0.0,90,0.00,,,0.00,WeatherDisplay:10.37,2013-05-21 13:49:00,
2013-05-21 09:54:00,64.0,61.0,29.87,South,180,0.0,0.0,90,0.00,,,0.00,WeatherDisplay:10.37,2013-05-21 13:54:00,
2013-05-21 09:59:00,64.2,61.2,29.87,South,180,0.0,0.0,90,0.00,,,0.00,WeatherDisplay:10.37,2013-05-21 13:59:00,
2013-05-21 10:04:00,64.8,61.8,29.87,South,180,0.0,0.0,90,0.00,,,0.00,WeatherDisplay:10.37,2013-05-21 14:04:00,
2013-05-21 10:09:00,64.9,61.9,29.87,SSW,202,0.0,0.0,90,0.00,,,0.00,WeatherDisplay:10.37,2013-05-21 14:09:00,
2013-05-21 10:14:00,65.1,62.1,29.87,SW,225,0.0,0.0,90,0.00,,,0.00,WeatherDisplay:10.37,2013-05-21 14:14:00,
2013-05-21 10:19:00,65.5,62.5,29.87,SSE,158,0.0,0.0,90,0.00,,,0.00,WeatherDisplay:10.37,2013-05-21 14:19:00,
2013-05-21 10:24:00,65.8,62.8,29.88,South,180,0.0,0.0,90,0.00,,,0.00,WeatherDisplay:10.37,2013-05-21 14:24:00,
2013-05-21 10:29:00,66.2,63.2,29.88,SSW,202,0.0,0.0,90,0.00,,,0.00,WeatherDisplay:10.37,2013-05-21 14:29:00,
2013-05-21 10:34:00,66.6,63.2,29.88,South,180,0.0,0.0,89,0.00,,,0.00,WeatherDisplay:10.37,2013-05-21 14:34:00,
2013-05-21 10:39:00,66.9,63.6,29.87,South,180,0.0,0.0,89,0.00,,,0.00,WeatherDisplay:10.37,2013-05-21 14:39:00,
2013-05-21 10:44:00,67.3,63.9,29.87,SSE,158,0.0,0.0,89,0.00,,,0.00,WeatherDisplay:10.37,2013-05-21 14:44:00,
2013-05-21 10:49:00,67.6,64.0,29.87,SSE,158,0.0,0.0,88,0.00,,,0.00,WeatherDisplay:10.37,2013-05-21 14:49:00,
2013-05-21 10:54:00,68.2,64.5,29.87,South,180,0.0,0.0,88,0.00,,,0.00,WeatherDisplay:10.37,2013-05-21 14:54:00,
2013-05-21 10:59:00,68.7,65.0,29.87,South,180,0.0,0.0,88,0.00,,,0.00,WeatherDisplay:10.37,2013-05-21 14:59:00,
2013-05-21 11:04:00,69.4,65.7,29.87,SSW,202,0.0,0.0,88,0.00,,,0.00,WeatherDisplay:10.37,2013-05-21 15:04:00,
2013-05-21 11:09:00,70.0,66.3,29.87,SSW,202,0.0,0.0,88,0.00,,,0.00,WeatherDisplay:10.37,2013-05-21 15:09:00,
2013-05-21 11:14:00,70.5,66.5,29.88,SSW,202,0.0,0.0,87,0.00,,,0.00,WeatherDisplay:10.37,2013-05-21 15:14:00,
2013-05-21 11:19:00,71.2,67.2,29.87,SW,225,0.0,0.0,87,0.00,,,0.00,WeatherDisplay:10.37,2013-05-21 15:19:00,
2013-05-21 11:24:00,71.4,67.0,29.87,SW,225,0.5,0.0,86,0.00,,,0.00,WeatherDisplay:10.37,2013-05-21 15:24:00,
2013-05-21 11:29:00,72.1,67.7,29.87,South,180,0.0,0.0,86,0.00,,,0.00,WeatherDisplay:10.37,2013-05-21 15:29:00,
2013-05-21 11:34:00,72.7,67.6,29.87,SW,225,0.0,0.0,84,0.00,,,0.00,WeatherDisplay:10.37,2013-05-21 15:34:00,
2013-05-21 11:39:00,72.7,67.6,29.87,SW,225,0.0,0.0,84,0.00,,,0.00,WeatherDisplay:10.37,2013-05-21 15:39:00,
2013-05-21 11:44:00,72.7,67.2,29.87,SW,225,0.0,0.0,83,0.00,,,0.00,WeatherDisplay:10.37,2013-05-21 15:44:00,
2013-05-21 11:49:00,72.7,67.2,29.87,SW,225,0.0,0.0,83,0.00,,,0.00,WeatherDisplay:10.37,2013-05-21 15:49:00,
2013-05-21 11:54:00,72.7,67.2,29.86,SSW,202,0.0,0.0,83,0.00,,,0.00,WeatherDisplay:10.37,2013-05-21 15:54:00,
2013-05-21 11:59:00,73.2,67.7,29.87,SSE,158,0.0,0.0,83,0.00,,,0.00,WeatherDisplay:10.37,2013-05-21 15:59:00,
2013-05-21 12:04:00,73.9,68.1,29.87,SW,225,0.0,0.0,82,0.00,,,0.00,WeatherDisplay:10.37,2013-05-21 16:04:00,
2013-05-21 12:09:00,74.8,68.6,29.87,SW,225,0.0,0.0,81,0.00,,,0.00,WeatherDisplay:10.37,2013-05-21 16:09:00,
2013-05-21 12:14:00,75.9,68.9,29.87,SSW,202,0.0,0.0,79,0.00,,,0.00,WeatherDisplay:10.37,2013-05-21 16:14:00,
2013-05-21 12:19:00,76.8,68.7,29.87,South,180,0.0,0.0,76,0.00,,,0.00,WeatherDisplay:10.37,2013-05-21 16:19:00,
2013-05-21 12:24:00,77.5,68.2,29.87,SSW,202,0.0,0.0,73,0.00,,,0.00,WeatherDisplay:10.37,2013-05-21 16:24:00,
2013-05-21 12:29:00,77.5,68.2,29.87,South,180,0.0,0.0,73,0.00,,,0.00,WeatherDisplay:10.37,2013-05-21 16:29:00,
2013-05-21 12:34:00,77.9,68.9,29.86,South,180,0.0,0.0,74,0.00,,,0.00,WeatherDisplay:10.37,2013-05-21 16:34:00,
2013-05-21 12:39:00,79.0,69.6,29.86,SW,225,0.0,0.0,73,0.00,,,0.00,WeatherDisplay:10.37,2013-05-21 16:39:00,
2013-05-21 12:44:00,80.1,70.2,29.86,SSW,202,0.2,1.1,72,0.00,,,0.00,WeatherDisplay:10.37,2013-05-21 16:44:00,
2013-05-21 12:49:00,81.1,70.0,29.86,SW,225,0.0,0.0,69,0.00,,,0.00,WeatherDisplay:10.37,2013-05-21 16:49:00,
2013-05-21 12:54:00,82.0,70.4,29.86,SSE,158,0.0,0.0,68,0.00,,,0.00,WeatherDisplay:10.37,2013-05-21 16:54:00,
2013-05-21 12:59:00,82.6,70.9,29.86,South,180,0.0,0.0,68,0.00,,,0.00,WeatherDisplay:10.37,2013-05-21 16:59:00,
2013-05-21 13:04:00,83.5,70.9,29.86,South,180,0.0,0.0,66,0.00,,,0.00,WeatherDisplay:10.37,2013-05-21 17:04:00,
2013-05-21 13:09:00,83.8,70.4,29.86,WSW,248,0.0,0.0,64,0.00,,,0.00,WeatherDisplay:10.37,2013-05-21 17:09:00,
2013-05-21 13:14:00,84.0,71.0,29.85,SSW,202,0.0,0.0,65,0.00,,,0.00,WeatherDisplay:10.37,2013-05-21 17:14:00,
2013-05-21 13:19:00,84.6,71.0,29.85,South,180,0.0,0.0,64,0.00,,,0.00,WeatherDisplay:10.37,2013-05-21 17:19:00,
2013-05-21 13:24:00,84.7,70.3,29.85,South,180,0.0,0.0,62,0.00,,,0.00,WeatherDisplay:10.37,2013-05-21 17:24:00,
2013-05-21 13:29:00,84.0,69.6,29.84,South,180,0.0,0.0,62,0.00,,,0.00,WeatherDisplay:10.37,2013-05-21 17:29:00,
2013-05-21 13:34:00,83.5,69.6,29.84,South,180,0.0,0.0,63,0.00,,,0.00,WeatherDisplay:10.37,2013-05-21 17:34:00,
2013-05-21 13:39:00,82.9,69.0,29.84,South,180,0.0,0.0,63,0.00,,,0.00,WeatherDisplay:10.37,2013-05-21 17:39:00,
2013-05-21 13:44:00,82.2,68.4,29.84,SW,225,0.0,0.0,63,0.00,,,0.00,WeatherDisplay:10.37,2013-05-21 17:44:00,
2013-05-21 13:49:00,82.0,68.2,29.84,South,180,0.0,0.0,63,0.00,,,0.00,WeatherDisplay:10.37,2013-05-21 17:49:00,
2013-05-21 13:54:00,82.8,69.3,29.84,South,180,0.0,0.0,64,0.00,,,0.00,WeatherDisplay:10.37,2013-05-21 17:54:00,
2013-05-21 13:59:00,83.8,69.9,29.84,SSE,158,0.0,0.0,63,0.00,,,0.00,WeatherDisplay:10.37,2013-05-21 17:59:00,
2013-05-21 14:04:00,84.9,70.0,29.84,SSE,158,0.0,0.0,61,0.00,,,0.00,WeatherDisplay:10.37,2013-05-21 18:04:00,
2013-05-21 14:09:00,86.2,70.7,29.83,SSE,158,0.0,0.0,60,0.00,,,0.00,WeatherDisplay:10.37,2013-05-21 18:09:00,
2013-05-21 14:14:00,86.2,69.2,29.83,WSW,248,0.0,0.0,57,0.00,,,0.00,WeatherDisplay:10.37,2013-05-21 18:14:00,
2013-05-21 14:19:00,84.9,68.5,29.84,WSW,248,0.0,0.0,58,0.00,,,0.00,WeatherDisplay:10.37,2013-05-21 18:19:00,
2013-05-21 14:24:00,83.8,68.0,29.83,SW,225,0.0,0.0,59,0.00,,,0.00,WeatherDisplay:10.37,2013-05-21 18:24:00,
2013-05-21 14:29:00,82.8,67.9,29.83,South,180,0.0,0.0,61,0.00,,,0.00,WeatherDisplay:10.37,2013-05-21 18:29:00,
2013-05-21 14:34:00,82.0,67.3,29.84,South,180,0.0,0.0,61,0.00,,,0.00,WeatherDisplay:10.37,2013-05-21 18:34:00,
2013-05-21 14:39:00,81.3,67.1,29.83,South,180,0.0,0.0,62,0.00,,,0.00,WeatherDisplay:10.37,2013-05-21 18:39:00,
2013-05-21 14:44:00,80.8,66.5,29.83,South,180,0.0,0.0,62,0.00,,,0.00,WeatherDisplay:10.37,2013-05-21 18:44:00,
2013-05-21 14:49:00,80.4,66.7,29.83,South,180,0.0,0.0,63,0.00,,,0.00,WeatherDisplay:10.37,2013-05-21 18:49:00,
2013-05-21 14:54:00,80.8,67.0,29.83,South,180,0.0,0.0,63,0.00,,,0.00,WeatherDisplay:10.37,2013-05-21 18:54:00,
2013-05-21 14:59:00,81.5,67.7,29.82,South,180,0.0,0.0,63,0.00,,,0.00,WeatherDisplay:10.37,2013-05-21 18:59:00,
2013-05-21 15:04:00,81.7,67.4,29.82,South,180,0.0,0.0,62,0.00,,,0.00,WeatherDisplay:10.37,2013-05-21 19:04:00,
2013-05-21 15:09:00,81.5,67.2,29.82,NW,315,0.0,0.0,62,0.00,,,0.00,WeatherDisplay:10.37,2013-05-21 19:09:00,
2013-05-21 15:14:00,81.3,67.1,29.82,WSW,248,0.0,0.0,62,0.00,,,0.00,WeatherDisplay:10.37,2013-05-21 19:14:00,
2013-05-21 15:19:00,81.1,66.9,29.82,WSW,248,0.0,0.0,62,0.00,,,0.00,WeatherDisplay:10.37,2013-05-21 19:19:00,
2013-05-21 15:24:00,80.4,66.2,29.82,WSW,248,0.0,0.0,62,0.00,,,0.00,WeatherDisplay:10.37,2013-05-21 19:24:00,
2013-05-21 15:29:00,79.9,66.6,29.82,WSW,248,0.0,0.0,64,0.00,,,0.00,WeatherDisplay:10.37,2013-05-21 19:29:00,
2013-05-21 15:34:00,79.5,66.3,29.82,WSW,248,0.0,0.0,64,0.00,,,0.00,WeatherDisplay:10.37,2013-05-21 19:34:00,
2013-05-21 15:39:00,79.0,66.2,29.82,WSW,248,0.0,0.0,65,0.00,,,0.00,WeatherDisplay:10.37,2013-05-21 19:39:00,
2013-05-21 15:44:00,78.1,65.8,29.82,SW,225,1.0,4.6,66,0.00,,,0.00,WeatherDisplay:10.37,2013-05-21 19:44:00,
2013-05-21 15:49:00,77.4,65.1,29.81,SSE,158,0.0,0.0,66,0.00,,,0.00,WeatherDisplay:10.37,2013-05-21 19:49:00,
2013-05-21 15:54:00,76.8,65.0,29.81,SW,225,0.0,0.0,67,0.00,,,0.00,WeatherDisplay:10.37,2013-05-21 19:54:00,
2013-05-21 15:59:00,76.3,64.5,29.80,WNW,292,0.0,0.0,67,0.00,,,0.00,WeatherDisplay:10.37,2013-05-21 19:59:00,
2013-05-21 16:04:00,75.4,63.7,29.80,South,180,0.4,1.1,67,0.00,,,0.00,WeatherDisplay:10.37,2013-05-21 20:04:00,
2013-05-21 16:09:00,74.8,62.7,29.80,SSE,158,0.0,0.0,66,0.00,,,0.00,WeatherDisplay:10.37,2013-05-21 20:09:00,
2013-05-21 16:14:00,74.1,62.0,29.81,South,180,0.0,0.0,66,0.00,,,0.00,WeatherDisplay:10.37,2013-05-21 20:14:00,
2013-05-21 16:19:00,73.8,61.7,29.81,South,180,0.0,0.0,66,0.00,,,0.00,WeatherDisplay:10.37,2013-05-21 20:19:00,
2013-05-21 16:24:00,73.4,61.8,29.81,South,180,0.0,0.0,67,0.00,,,0.00,WeatherDisplay:10.37,2013-05-21 20:24:00,
2013-05-21 16:29:00,73.0,61.9,29.81,SW,225,0.0,0.0,68,0.00,,,0.00,WeatherDisplay:10.37,2013-05-21 20:29:00,
2013-05-21 16:34:00,72.5,60.5,29.80,SW,225,0.0,0.0,66,0.00,,,0.00,WeatherDisplay:10.37,2013-05-21 20:34:00,
2013-05-21 16:39:00,72.3,59.5,29.80,SW,225,0.0,0.0,64,0.00,,,0.00,WeatherDisplay:10.37,2013-05-21 20:39:00,
2013-05-21 16:44:00,72.1,60.2,29.80,SW,225,0.0,0.0,66,0.00,,,0.00,WeatherDisplay:10.37,2013-05-21 20:44:00,
2013-05-21 16:49:00,72.1,59.3,29.80,SW,225,0.0,0.0,64,0.00,,,0.00,WeatherDisplay:10.37,2013-05-21 20:49:00,
2013-05-21 16:54:00,72.1,59.7,29.80,SSW,202,0.0,0.0,65,0.00,,,0.00,WeatherDisplay:10.37,2013-05-21 20:54:00,
2013-05-21 16:59:00,72.1,60.6,29.80,SSW,202,0.0,0.0,67,0.00,,,0.00,WeatherDisplay:10.37,2013-05-21 20:59:00,
2013-05-21 17:04:00,71.8,60.6,29.80,SSW,202,0.0,0.0,68,0.00,,,0.00,WeatherDisplay:10.37,2013-05-21 21:04:00,
2013-05-21 17:09:00,71.4,60.3,29.80,South,180,0.0,0.0,68,0.00,,,0.00,WeatherDisplay:10.37,2013-05-21 21:09:00,
2013-05-21 17:14:00,71.2,60.1,29.80,South,180,0.0,0.0,68,0.00,,,0.00,WeatherDisplay:10.37,2013-05-21 21:14:00,
2013-05-21 17:19:00,71.2,61.0,29.80,South,180,0.0,0.0,70,0.00,,,0.00,WeatherDisplay:10.37,2013-05-21 21:19:00,
2013-05-21 17:24:00,71.2,61.0,29.80,South,180,0.0,0.0,70,0.00,,,0.00,WeatherDisplay:10.37,2013-05-21 21:24:00,
2013-05-21 17:29:00,71.2,61.0,29.80,South,180,0.0,0.0,70,0.00,,,0.00,WeatherDisplay:10.37,2013-05-21 21:29:00,
2013-05-21 17:34:00,71.2,61.4,29.80,South,180,0.0,0.0,71,0.00,,,0.00,WeatherDisplay:10.37,2013-05-21 21:34:00,
2013-05-21 17:39:00,71.1,61.2,29.80,South,180,0.0,0.0,71,0.00,,,0.00,WeatherDisplay:10.37,2013-05-21 21:39:00,
2013-05-21 17:44:00,71.2,61.4,29.80,South,180,0.0,0.0,71,0.00,,,0.00,WeatherDisplay:10.37,2013-05-21 21:44:00,
2013-05-21 17:49:00,71.1,61.6,29.80,South,180,0.0,0.0,72,0.00,,,0.00,WeatherDisplay:10.37,2013-05-21 21:49:00,
2013-05-21 17:54:00,70.9,61.4,29.79,South,180,0.0,0.0,72,0.00,,,0.00,WeatherDisplay:10.37,2013-05-21 21:54:00,
2013-05-21 17:59:00,70.7,61.2,29.79,South,180,0.0,0.0,72,0.00,,,0.00,WeatherDisplay:10.37,2013-05-21 21:59:00,
2013-05-21 18:04:00,70.5,61.1,29.80,South,180,0.0,0.0,72,0.00,,,0.00,WeatherDisplay:10.37,2013-05-21 22:04:00,
2013-05-21 18:09:00,70.3,60.9,29.80,South,180,0.0,0.0,72,0.00,,,0.00,WeatherDisplay:10.37,2013-05-21 22:09:00,
2013-05-21 18:14:00,70.3,61.3,29.79,South,180,0.0,0.0,73,0.00,,,0.00,WeatherDisplay:10.37,2013-05-21 22:14:00,
2013-05-21 18:19:00,70.2,61.5,29.78,South,180,0.0,0.0,74,0.00,,,0.00,WeatherDisplay:10.37,2013-05-21 22:19:00,
2013-05-21 18:24:00,70.0,61.7,29.79,South,180,0.0,0.0,75,0.00,,,0.00,WeatherDisplay:10.37,2013-05-21 22:24:00,
2013-05-21 18:29:00,70.0,61.7,29.79,South,180,0.0,0.0,75,0.00,,,0.00,WeatherDisplay:10.37,2013-05-21 22:29:00,
2013-05-21 18:34:00,69.6,61.3,29.78,ENE,68,0.0,0.0,75,0.00,,,0.00,WeatherDisplay:10.37,2013-05-21 22:34:00,
2013-05-21 18:39:00,69.6,61.3,29.78,ENE,68,0.0,0.0,75,0.00,,,0.00,WeatherDisplay:10.37,2013-05-21 22:39:00,
2013-05-21 18:44:00,69.6,61.7,29.78,ENE,68,0.0,0.0,76,0.00,,,0.00,WeatherDisplay:10.37,2013-05-21 22:44:00,
2013-05-21 18:49:00,69.4,61.9,29.78,ENE,68,0.0,0.0,77,0.00,,,0.00,WeatherDisplay:10.37,2013-05-21 22:49:00,
2013-05-21 18:54:00,69.3,61.7,29.79,ENE,68,0.0,0.0,77,0.00,,,0.00,WeatherDisplay:10.37,2013-05-21 22:54:00,
2013-05-21 18:59:00,69.3,61.7,29.79,ENE,68,0.0,0.0,77,0.00,,,0.00,WeatherDisplay:10.37,2013-05-21 22:59:00,
2013-05-21 19:04:00,69.1,61.2,29.80,ENE,68,0.0,0.0,76,0.00,,,0.00,WeatherDisplay:10.37,2013-05-21 23:04:00,
2013-05-21 19:09:00,69.4,61.5,29.80,East,90,0.0,0.0,76,0.00,,,0.00,WeatherDisplay:10.37,2013-05-21 23:09:00,
2013-05-21 19:14:00,69.4,61.9,29.80,East,90,0.0,0.0,77,0.00,,,0.00,WeatherDisplay:10.37,2013-05-21 23:14:00,
2013-05-21 19:19:00,69.3,61.7,29.80,East,90,0.0,0.0,77,0.00,,,0.00,WeatherDisplay:10.37,2013-05-21 23:19:00,
2013-05-21 19:24:00,69.1,61.6,29.80,East,90,0.0,0.0,77,0.00,,,0.00,WeatherDisplay:10.37,2013-05-21 23:24:00,
2013-05-21 19:29:00,68.9,61.4,29.80,East,90,0.0,0.0,77,0.00,,,0.00,WeatherDisplay:10.37,2013-05-21 23:29:00,
2013-05-21 19:34:00,68.7,61.6,29.80,SE,135,0.0,0.0,78,0.00,,,0.00,WeatherDisplay:10.37,2013-05-21 23:34:00,
2013-05-21 19:39:00,68.5,61.4,29.80,SE,135,0.0,0.0,78,0.00,,,0.00,WeatherDisplay:10.37,2013-05-21 23:39:00,
2013-05-21 19:44:00,68.4,61.6,29.81,SE,135,0.0,0.0,79,0.00,,,0.00,WeatherDisplay:10.37,2013-05-21 23:44:00,
2013-05-21 19:49:00,68.2,61.1,29.81,SE,135,0.0,0.0,78,0.00,,,0.00,WeatherDisplay:10.37,2013-05-21 23:49:00,
2013-05-21 19:54:00,68.2,61.4,29.81,SE,135,0.0,0.0,79,0.00,,,0.00,WeatherDisplay:10.37,2013-05-21 23:54:00,
2013-05-21 19:59:00,67.8,61.1,29.81,SE,135,0.0,0.0,79,0.00,,,0.00,WeatherDisplay:10.37,2013-05-21 23:59:00,
2013-05-21 20:04:00,67.8,61.1,29.81,SSE,158,0.0,0.0,79,0.00,,,0.00,WeatherDisplay:10.37,2013-05-22 00:04:00,
2013-05-21 20:09:00,67.8,61.1,29.81,SSE,158,0.0,0.0,79,0.00,,,0.00,WeatherDisplay:10.37,2013-05-22 00:09:00,
2013-05-21 20:14:00,67.6,60.9,29.82,South,180,0.0,0.0,79,0.00,,,0.00,WeatherDisplay:10.37,2013-05-22 00:14:00,
2013-05-21 20:19:00,67.5,60.7,29.81,South,180,0.0,0.0,79,0.00,,,0.00,WeatherDisplay:10.37,2013-05-22 00:19:00,
2013-05-21 20:24:00,67.3,60.5,29.81,South,180,0.0,0.0,79,0.00,,,0.00,WeatherDisplay:10.37,2013-05-22 00:24:00,
2013-05-21 20:29:00,67.3,60.9,29.82,South,180,0.0,0.0,80,0.00,,,0.00,WeatherDisplay:10.37,2013-05-22 00:29:00,
2013-05-21 20:34:00,67.1,60.7,29.81,South,180,0.0,0.0,80,0.00,,,0.00,WeatherDisplay:10.37,2013-05-22 00:34:00,
2013-05-21 20:39:00,66.9,60.5,29.81,South,180,0.0,0.0,80,0.00,,,0.00,WeatherDisplay:10.37,2013-05-22 00:39:00,
2013-05-21 20:44:00,66.7,60.4,29.80,South,180,0.0,0.0,80,0.00,,,0.00,WeatherDisplay:10.37,2013-05-22 00:44:00,
2013-05-21 20:49:00,66.7,60.4,29.80,South,180,0.0,0.0,80,0.00,,,0.00,WeatherDisplay:10.37,2013-05-22 00:49:00,
2013-05-21 20:54:00,66.6,60.2,29.80,South,180,0.0,0.0,80,0.00,,,0.00,WeatherDisplay:10.37,2013-05-22 00:54:00,
2013-05-21 20:59:00,66.4,60.4,29.81,South,180,0.0,0.0,81,0.00,,,0.00,WeatherDisplay:10.37,2013-05-22 00:59:00,
2013-05-21 21:04:00,66.4,60.4,29.81,South,180,0.0,0.0,81,0.00,,,0.00,WeatherDisplay:10.37,2013-05-22 01:04:00,
2013-05-21 21:09:00,66.2,60.2,29.80,South,180,0.0,0.0,81,0.00,,,0.00,WeatherDisplay:10.37,2013-05-22 01:09:00,
2013-05-21 21:14:00,66.0,60.0,29.81,South,180,0.0,0.0,81,0.00,,,0.00,WeatherDisplay:10.37,2013-05-22 01:14:00,
2013-05-21 21:19:00,66.0,60.4,29.81,South,180,0.0,0.0,82,0.00,,,0.00,WeatherDisplay:10.37,2013-05-22 01:19:00,
2013-05-21 21:24:00,66.0,60.4,29.81,South,180,0.0,0.0,82,0.00,,,0.00,WeatherDisplay:10.37,2013-05-22 01:24:00,
2013-05-21 21:29:00,65.8,60.2,29.82,South,180,0.0,0.0,82,0.00,,,0.00,WeatherDisplay:10.37,2013-05-22 01:29:00,
2013-05-21 21:34:00,65.8,60.2,29.82,South,180,0.0,0.0,82,0.00,,,0.00,WeatherDisplay:10.37,2013-05-22 01:34:00,
2013-05-21 21:39:00,65.5,59.8,29.82,South,180,0.0,0.0,82,0.00,,,0.00,WeatherDisplay:10.37,2013-05-22 01:39:00,
2013-05-21 21:44:00,65.5,59.8,29.82,South,180,0.0,0.0,82,0.00,,,0.00,WeatherDisplay:10.37,2013-05-22 01:44:00,
2013-05-21 21:49:00,65.3,59.7,29.81,South,180,0.0,0.0,82,0.00,,,0.00,WeatherDisplay:10.37,2013-05-22 01:49:00,
2013-05-21 21:54:00,65.3,59.7,29.81,South,180,0.0,0.0,82,0.00,,,0.00,WeatherDisplay:10.37,2013-05-22 01:54:00,
2013-05-21 21:59:00,65.3,59.7,29.81,South,180,0.0,0.0,82,0.00,,,0.00,WeatherDisplay:10.37,2013-05-22 01:59:00,
2013-05-21 22:04:00,65.1,59.5,29.82,South,180,0.0,0.0,82,0.00,,,0.00,WeatherDisplay:10.37,2013-05-22 02:04:00,
2013-05-21 22:09:00,65.1,59.5,29.82,South,180,0.0,0.0,82,0.00,,,0.00,WeatherDisplay:10.37,2013-05-22 02:09:00,
2013-05-21 22:14:00,65.1,59.8,29.82,South,180,0.0,0.0,83,0.00,,,0.00,WeatherDisplay:10.37,2013-05-22 02:14:00,
2013-05-21 22:19:00,65.1,59.8,29.82,South,180,0.0,0.0,83,0.00,,,0.00,WeatherDisplay:10.37,2013-05-22 02:19:00,
2013-05-21 22:24:00,65.1,59.5,29.82,South,180,0.0,0.0,82,0.00,,,0.00,WeatherDisplay:10.37,2013-05-22 02:24:00,
2013-05-21 22:29:00,65.1,59.8,29.82,South,180,0.0,0.0,83,0.00,,,0.00,WeatherDisplay:10.37,2013-05-22 02:29:00,
2013-05-21 22:34:00,64.9,59.7,29.82,SSE,158,0.0,0.0,83,0.00,,,0.00,WeatherDisplay:10.37,2013-05-22 02:34:00,
2013-05-21 22:39:00,64.9,59.7,29.82,SSE,158,0.0,0.0,83,0.00,,,0.00,WeatherDisplay:10.37,2013-05-22 02:39:00,
2013-05-21 22:44:00,64.8,59.5,29.82,SSE,158,0.0,0.0,83,0.00,,,0.00,WeatherDisplay:10.37,2013-05-22 02:44:00,
2013-05-21 22:49:00,64.8,59.5,29.82,SSE,158,0.0,0.0,83,0.00,,,0.00,WeatherDisplay:10.37,2013-05-22 02:49:00,
2013-05-21 22:54:00,64.8,59.5,29.82,SSE,158,0.0,0.0,83,0.00,,,0.00,WeatherDisplay:10.37,2013-05-22 02:54:00,
2013-05-21 22:59:00,64.8,59.5,29.82,SSE,158,0.0,0.0,83,0.00,,,0.00,WeatherDisplay:10.37,2013-05-22 02:59:00,
2013-05-21 23:04:00,64.8,59.5,29.82,SSE,158,0.0,0.0,83,0.00,,,0.00,WeatherDisplay:10.37,2013-05-22 03:04:00,
2013-05-21 23:09:00,64.8,59.5,29.81,SSE,158,0.0,0.0,83,0.00,,,0.00,WeatherDisplay:10.37,2013-05-22 03:09:00,
2013-05-21 23:14:00,64.8,59.5,29.82,SSE,158,0.0,0.0,83,0.00,,,0.00,WeatherDisplay:10.37,2013-05-22 03:14:00,
2013-05-21 23:19:00,64.8,59.5,29.82,SSE,158,0.0,0.0,83,0.00,,,0.00,WeatherDisplay:10.37,2013-05-22 03:19:00,
2013-05-21 23:24:00,64.8,59.5,29.82,SSE,158,0.0,0.0,83,0.00,,,0.00,WeatherDisplay:10.37,2013-05-22 03:24:00,
2013-05-21 23:29:00,64.6,59.3,29.82,SSE,158,0.0,0.0,83,0.00,,,0.00,WeatherDisplay:10.37,2013-05-22 03:29:00,
2013-05-21 23:34:00,64.6,59.3,29.82,SSE,158,0.0,0.0,83,0.00,,,0.00,WeatherDisplay:10.37,2013-05-22 03:34:00,
2013-05-21 23:39:00,64.6,59.3,29.83,SSE,158,0.0,0.0,83,0.00,,,0.00,WeatherDisplay:10.37,2013-05-22 03:39:00,
2013-05-21 23:44:00,64.4,59.5,29.82,ENE,68,0.0,0.0,84,0.00,,,0.00,WeatherDisplay:10.37,2013-05-22 03:44:00,
2013-05-21 23:49:00,64.2,59.3,29.82,ENE,68,0.0,0.0,84,0.00,,,0.00,WeatherDisplay:10.37,2013-05-22 03:49:00,
2013-05-21 23:54:00,64.2,59.3,29.83,ENE,68,0.0,0.0,84,0.00,,,0.00,WeatherDisplay:10.37,2013-05-22 03:54:00,
2013-05-21 23:59:00,64.2,59.3,29.82,ENE,68,0.0,0.0,84,0.00,,,0.00,WeatherDisplay:10.37,2013-05-22 03:59:00,